Wind_Speed
13 13 12 12 12 12 11 10 10 9 8 8 7 8 8 7 7 8 8 8 8 8 8 8 9 8 9 8 8 8 8 9 9 9 9 9 9 9 8 8 8 7 7
12 12 12 12 11 11 10 10 9 9 8 7 7 7 7 7 7 7 7 7 7 7 7 7 7 8 8 8 9 9 9 9 9 9 9 9 9 9 9 8 8 8 8
12 12 11 11 10 10 10 9 9 9 8 7 6 7 6 6 6 6 6 6 6 6 6 7 7 7 8 8 8 9 9 9 9 9 9 9 9 9 9 8 8 8 8
13 12 11 10 10 9 9 9 8 7 7 6 6 6 6 6 6 6 6 6 6 6 6 7 7 7 8 8 8 8 8 9 10 10 9 9 9 9 9 8 8 8 8
12 11 11 10 9 9 9 8 7 7 6 6 5 5 5 6 5 6 6 5 6 6 6 6 7 8 8 8 8 8 8 9 9 9 9 9 9 9 9 9 8 8 8
11 11 10 10 10 9 8 7 7 6 6 6 6 5 5 5 5 5 6 6 6 5 6 6 7 7 7 7 7 7 8 9 9 9 9 8 8 8 8 8 8 8 8
11 11 10 10 9 9 9 8 7 7 7 6 6 6 5 4 4 4 5 5 5 6 6 6 6 6 6 6 7 7 8 8 8 8 8 8 8 8 8 8 8 8 8
11 11 10 10 10 9 9 8 8 7 7 7 6 6 6 6 5 5 5 5 5 5 6 6 6 5 6 6 6 6 7 8 8 8 8 7 8 7 7 7 7 8 7
12 11 10 10 10 10 9 9 8 7 7 6 5 5 6 5 5 6 6 6 6 6 6 6 6 6 5 5 5 6 6 7 7 7 7 7 7 7 6 7 7 7 7
11 10 11 11 10 10 9 9 8 7 7 6 6 5 6 5 5 6 6 6 6 6 6 6 6 6 5 5 5 6 6 7 7 6 6 6 6 7 6 7 6 6 6
11 11 11 10 11 10 9 9 9 8 7 6 6 6 6 6 6 5 5 5 5 5 6 6 6 6 6 6 5 5 6 6 6 6 6 6 6 6 6 6 6 5 5
12 11 11 10 10 10 10 9 9 8 7 6 6 6 5 5 6 5 5 5 5 6 5 5 5 5 5 5 5 5 5 5 5 5 5 5 5 5 5 5 6 5 5
12 11 11 10 10 10 10 9 9 8 7 7 6 6 6 5 5 4 4 5 5 5 5 5 5 5 5 5 4 4 4 4 4 4 4 4 4 4 4 4 5 4 4
12 11 11 11 11 10 9 9 9 8 7 7 6 5 5 5 5 4 4 4 4 4 4 4 4 4 4 5 4 3 3 3 3 3 3 3 3 3 4 3 3 3 3
12 11 11 10 10 10 9 9 8 7 6 6 6 5 5 5 5 5 4 4 4 3 3 3 3 3 4 4 3 3 2 2 3 3 2 2 2 2 3 2 2 2 2
12 11 10 10 10 9 9 9 7 6 6 6 5 4 4 4 4 4 3 4 3 2 3 2 2 2 2 2 2 2 1 2 2 2 2 2 1 1 1 1 1 1 1
11 11 10 10 10 9 9 8 7 6 5 5 4 4 3 3 3 3 3 3 2 2 1 2 1 1 1 1 1 1 1 1 1 1 1 1 1 1 1 1 1 1 1
11 10 10 9 9 9 8 8 7 6 5 5 4 4 3 3 3 3 3 3 2 2 1 1 1 1 1 2 1 1 1 1 1 2 2 2 2 1 1 2 2 2 3
10 10 10 10 9 9 8 7 6 6 5 5 5 4 4 4 3 3 3 3 2 1 2 1 1 2 2 2 2 2 1 1 2 2 3 3 3 3 3 3 4 3 4
8 9 10 10 10 9 8 8 7 6 5 5 5 4 4 4 3 3 3 3 2 1 2 2 2 2 2 2 2 2 2 2 3 4 4 4 4 4 5 5 5 5 5
8 9 9 9 10 9 9 8 7 6 5 5 4 4 4 4 3 2 3 2 2 2 2 2 2 2 2 2 3 3 4 4 4 5 5 6 6 7 7 7 8 7 7
7 8 9 9 9 9 9 8 7 6 6 5 5 4 4 4 4 4 4 3 2 2 3 3 2 2 3 4 4 4 5 5 5 5 6 7 8 8 8 8 9 9 9
7 7 8 9 9 9 8 8 8 7 6 5 4 4 4 4 5 5 5 4 3 4 4 4 4 4 4 4 5 5 5 6 7 7 8 8 9 9 9 10 10 10 11
6 7 7 8 9 9 9 8 8 7 7 5 5 5 4 5 5 4 4 5 4 4 4 4 5 4 4 5 5 6 7 7 8 8 9 10 10 11 11 11 12 12 12
6 6 7 7 8 9 8 8 9 8 6 6 6 6 5 5 4 4 5 5 5 4 5 5 5 5 5 6 7 7 8 8 9 10 10 11 11 12 12 13 13 14 14
6 6 7 8 8 8 8 8 8 8 7 6 6 6 6 5 5 4 4 5 5 5 5 6 6 7 7 8 8 9 9 10 10 10 11 12 13 13 13 14 14 14 15
Wind_Direction
76 77 79 80 79 79 79 77 76 75 77 80 83 90 95 96 97 98 97 98 96 94 97 98 102 101 98 96 95 94 91 90 90 88 86 85 85 86 88 88 86 84 83
77 77 78 78 77 77 77 75 76 73 75 82 84 86 89 92 99 101 100 98 97 98 102 101 102 100 99 96 95 91 89 89 89 89 86 84 83 84 86 84 82 84 85
75 76 77 78 76 75 76 76 76 74 74 81 85 86 85 87 91 97 102 99 100 97 100 101 102 99 101 98 96 92 89 88 88 85 84 83 83 84 84 82 82 85 87
73 72 74 77 77 74 75 77 81 77 75 82 85 88 87 87 88 95 101 102 102 99 97 98 101 104 105 101 95 88 85 86 85 82 83 84 83 83 84 81 80 81 87
69 68 71 74 75 76 74 73 74 77 78 79 81 84 92 93 94 96 98 98 103 102 100 102 105 109 106 98 92 86 82 84 82 78 81 85 85 84 83 82 80 81 87
67 65 67 70 69 69 69 67 73 76 75 72 76 85 96 96 98 101 101 99 98 94 98 105 106 106 104 96 85 82 81 81 78 76 80 83 87 86 84 84 83 84 88
65 65 65 66 65 63 64 66 68 72 72 74 81 92 94 94 103 104 102 104 95 95 96 99 101 99 99 95 83 76 79 82 79 78 83 85 86 87 86 86 86 86 89
62 63 62 63 60 59 57 60 66 69 73 75 82 83 85 91 94 98 99 103 99 94 90 93 98 95 93 93 83 79 78 78 77 78 82 85 85 86 86 87 88 89 87
59 59 60 59 58 59 58 59 63 64 68 66 68 75 74 77 81 90 87 87 89 89 88 86 89 91 94 95 85 79 75 73 74 74 79 85 85 84 85 88 89 88 88
56 57 58 58 57 57 58 59 59 60 64 63 62 71 73 76 78 77 75 77 81 93 94 88 84 87 93 93 88 82 76 71 72 72 78 81 83 85 86 86 88 88 88
53 53 55 57 57 58 57 57 56 59 64 65 64 67 70 71 71 72 74 73 71 84 90 87 81 86 93 91 87 82 75 73 71 72 76 80 83 85 87 88 88 88 87
49 50 53 54 56 56 57 57 57 61 64 68 68 68 69 71 68 68 69 72 78 79 78 77 77 81 92 92 88 86 81 77 73 71 73 80 82 83 89 92 89 87 86
45 47 48 50 54 55 57 57 58 61 62 63 62 63 69 70 68 70 71 75 79 75 71 71 75 79 87 90 91 91 83 82 71 64 70 78 80 79 83 93 94 89 83
44 47 49 50 49 49 52 51 52 56 57 60 58 57 64 66 67 68 75 72 75 76 69 69 72 73 76 78 80 80 78 80 72 61 72 77 78 74 77 90 92 85 79
42 47 49 49 48 47 49 47 46 49 50 51 49 48 56 66 70 68 67 63 62 55 56 67 65 60 63 68 72 68 64 85 76 63 68 77 70 66 72 79 82 75 68
41 47 49 47 45 45 46 46 43 44 43 37 33 32 42 57 65 68 62 62 57 61 61 56 52 42 50 71 69 61 73 80 60 53 55 60 56 43 47 55 60 42 7
39 43 45 43 41 39 39 40 39 38 34 29 27 25 33 48 57 55 49 47 51 61 69 47 29 0 18 41 34 24 14 25 334 349 2 14 4 351 340 343 336 320 309
33 36 37 35 34 33 34 34 30 29 25 22 24 22 20 28 36 36 34 35 44 46 20 15 352 322 321 346 350 335 318 329 309 301 298 299 300 302 287 281 287 295 287
28 28 29 28 26 27 28 27 21 17 13 8 9 12 11 9 19 21 14 14 26 15 359 6 355 347 342 337 325 324 314 289 296 291 277 282 288 288 281 278 276 282 282
24 21 21 20 21 22 20 18 12 10 7 2 359 1 3 6 7 11 10 12 25 16 349 1 351 346 334 328 321 316 296 282 279 281 279 280 279 277 274 275 273 273 273
17 16 15 17 18 16 12 14 13 10 0 352 352 349 343 345 346 343 352 2 5 9 342 328 314 305 295 298 304 300 298 294 285 281 279 276 275 275 273 276 273 270 269
9 10 12 16 14 12 8 11 17 12 5 355 350 344 341 338 331 320 313 317 317 321 318 306 290 285 288 281 287 294 289 294 294 288 288 284 278 277 276 277 274 272 269
360 3 8 12 10 10 9 7 8 4 359 352 343 330 331 335 328 312 298 305 307 303 299 302 298 292 292 287 279 282 283 284 289 288 290 288 284 280 277 272 272 273 270
346 352 358 3 2 1 360 360 357 355 354 351 344 336 326 318 316 312 310 310 305 295 288 289 295 294 296 293 282 281 283 281 280 279 281 282 284 283 281 278 273 274 272
337 343 345 349 353 354 352 351 350 347 348 343 333 326 322 317 312 314 301 302 305 300 286 282 284 287 290 293 289 283 280 284 286 284 283 282 281 281 279 280 279 276 274
323 330 335 338 342 345 344 344 343 342 341 335 332 327 323 310 299 298 296 291 296 301 293 288 287 289 287 291 289 285 282 284 287 287 286 283 281 281 280 278 278 280 277
Height
5894 5893 5893 5893 5892 5892 5892 5892 5892 5892 5892 5892 5892 5892 5892 5892 5892 5891 5891 5891 5891 5890 5890 5890 5890 5890 5890 5890 5890 5890 5890 5890 5890 5889 5889 5889 5889 5888 5888 5887 5887 5887 5886
5897 5896 5896 5895 5895 5895 5894 5894 5894 5894 5894 5894 5894 5894 5894 5894 5894 5893 5893 5892 5892 5892 5892 5891 5892 5892 5892 5892 5892 5892 5891 5891 5891 5891 5890 5890 5890 5889 5889 5888 5888 5888 5887
5898 5898 5898 5897 5897 5897 5896 5896 5896 5896 5896 5896 5896 5895 5895 5895 5895 5894 5894 5894 5894 5893 5893 5893 5893 5893 5893 5893 5893 5893 5893 5892 5892 5892 5891 5891 5891 5890 5890 5889 5889 5889 5888
5900 5900 5900 5899 5899 5899 5898 5898 5898 5898 5898 5897 5897 5897 5897 5897 5896 5896 5895 5895 5895 5895 5894 5895 5895 5895 5894 5894 5894 5894 5894 5893 5893 5893 5892 5892 5892 5891 5891 5891 5890 5890 5890
5902 5902 5902 5901 5901 5901 5900 5900 5900 5900 5899 5899 5899 5898 5898 5898 5898 5897 5897 5896 5896 5896 5896 5896 5896 5896 5896 5896 5896 5895 5895 5894 5894 5894 5893 5893 5893 5892 5892 5892 5892 5891 5891
5904 5904 5904 5903 5903 5902 5902 5902 5901 5901 5901 5900 5900 5900 5899 5899 5899 5898 5898 5897 5897 5897 5897 5897 5897 5898 5898 5897 5897 5896 5896 5896 5895 5895 5895 5894 5894 5894 5893 5893 5893 5892 5892
5907 5906 5905 5905 5905 5904 5903 5903 5903 5902 5902 5902 5901 5901 5901 5900 5900 5899 5899 5899 5899 5899 5899 5899 5899 5899 5899 5899 5898 5898 5897 5897 5896 5896 5896 5895 5895 5895 5895 5894 5894 5894 5893
5908 5908 5907 5907 5906 5905 5905 5904 5904 5904 5903 5903 5903 5902 5902 5901 5901 5900 5900 5900 5900 5900 5900 5900 5900 5900 5900 5899 5899 5899 5898 5898 5898 5897 5897 5896 5896 5896 5896 5895 5895 5895 5895
5910 5909 5909 5908 5907 5907 5906 5906 5905 5905 5905 5904 5904 5903 5903 5902 5902 5902 5901 5901 5901 5901 5901 5901 5901 5901 5900 5900 5900 5900 5900 5899 5899 5898 5898 5898 5897 5897 5897 5896 5896 5896 5896
5912 5911 5910 5910 5909 5908 5908 5907 5907 5906 5906 5905 5905 5904 5904 5903 5903 5903 5903 5902 5902 5901 5901 5902 5902 5901 5901 5901 5901 5901 5901 5900 5900 5900 5899 5899 5898 5898 5898 5897 5897 5897 5897
5913 5913 5912 5911 5910 5910 5909 5909 5908 5907 5907 5906 5906 5905 5905 5904 5904 5904 5904 5903 5903 5902 5902 5903 5902 5902 5903 5902 5902 5902 5902 5901 5901 5901 5900 5900 5899 5899 5898 5898 5898 5898 5898
5915 5914 5913 5912 5912 5911 5910 5910 5909 5909 5908 5907 5907 5906 5906 5905 5905 5905 5905 5905 5904 5904 5904 5903 5903 5903 5903 5903 5903 5903 5903 5902 5902 5902 5901 5901 5901 5900 5899 5899 5899 5899 5899
5916 5915 5914 5914 5913 5912 5911 5911 5910 5910 5909 5909 5908 5907 5906 5906 5906 5906 5906 5906 5905 5905 5905 5905 5905 5905 5904 5904 5904 5904 5903 5903 5903 5903 5902 5902 5901 5901 5900 5900 5900 5899 5899
5918 5917 5916 5915 5914 5913 5912 5912 5911 5911 5910 5910 5909 5908 5908 5907 5907 5907 5907 5907 5906 5906 5906 5906 5906 5905 5905 5905 5905 5904 5904 5904 5903 5903 5903 5903 5902 5902 5901 5901 5900 5900 5900
5919 5918 5917 5916 5915 5915 5914 5913 5912 5912 5911 5911 5910 5909 5909 5908 5908 5908 5907 5907 5907 5906 5906 5906 5906 5906 5906 5905 5905 5905 5904 5904 5904 5904 5903 5903 5903 5902 5902 5901 5901 5901 5900
5920 5919 5918 5917 5917 5916 5915 5914 5913 5913 5912 5911 5911 5910 5909 5909 5909 5908 5908 5908 5907 5907 5906 5906 5906 5906 5906 5906 5906 5905 5905 5905 5904 5904 5904 5903 5903 5903 5902 5902 5901 5901 5900
5921 5920 5919 5918 5917 5916 5915 5915 5914 5913 5912 5912 5911 5910 5910 5909 5909 5909 5908 5908 5907 5907 5906 5906 5906 5906 5906 5906 5906 5905 5905 5904 5904 5904 5904 5903 5903 5903 5902 5902 5901 5901 5900
5922 5920 5919 5919 5918 5917 5916 5915 5914 5913 5913 5912 5911 5910 5910 5909 5909 5909 5908 5908 5907 5907 5906 5906 5906 5905 5905 5905 5905 5905 5905 5904 5904 5904 5903 5903 5903 5902 5902 5902 5901 5900 5900
5922 5921 5920 5919 5918 5917 5916 5915 5914 5913 5913 5912 5910 5910 5910 5909 5909 5908 5908 5907 5907 5906 5906 5906 5905 5905 5905 5905 5905 5904 5904 5904 5903 5903 5903 5903 5902 5902 5901 5901 5900 5900 5899
5923 5921 5920 5919 5918 5917 5916 5915 5914 5913 5912 5911 5910 5910 5909 5909 5908 5908 5907 5907 5906 5906 5906 5905 5905 5904 5904 5904 5904 5904 5903 5903 5902 5902 5902 5901 5901 5901 5900 5900 5899 5899 5898
5923 5922 5920 5919 5918 5916 5915 5914 5913 5912 5912 5911 5910 5909 5909 5908 5907 5907 5907 5906 5906 5905 5905 5904 5904 5904 5904 5903 5903 5903 5902 5902 5902 5901 5901 5900 5900 5899 5898 5898 5898 5898 5897
5923 5922 5920 5919 5918 5916 5915 5914 5913 5912 5911 5910 5910 5909 5908 5907 5907 5906 5906 5905 5905 5904 5904 5903 5903 5902 5902 5902 5902 5901 5901 5901 5900 5900 5900 5899 5898 5897 5897 5897 5896 5896 5895
5923 5922 5920 5919 5918 5916 5915 5914 5913 5912 5911 5910 5909 5908 5907 5906 5906 5905 5905 5904 5903 5903 5903 5902 5902 5901 5901 5901 5900 5900 5900 5899 5899 5899 5898 5897 5897 5896 5895 5894 5894 5893 5892
5922 5922 5920 5919 5918 5916 5915 5913 5912 5911 5910 5909 5908 5907 5906 5905 5904 5903 5903 5902 5902 5902 5901 5901 5900 5900 5899 5899 5899 5898 5898 5897 5897 5897 5896 5895 5895 5894 5893 5892 5891 5890 5889
5922 5921 5920 5918 5917 5916 5914 5913 5911 5910 5909 5907 5906 5906 5904 5904 5903 5902 5901 5901 5900 5900 5899 5899 5898 5898 5898 5897 5896 5896 5895 5895 5894 5894 5893 5893 5892 5891 5890 5889 5888 5887 5886
5921 5920 5919 5918 5916 5915 5913 5912 5910 5909 5907 5906 5905 5904 5903 5902 5901 5900 5899 5899 5899 5898 5898 5897 5897 5896 5896 5895 5894 5893 5893 5892 5892 5891 5890 5890 5889 5888 5887 5886 5885 5884 5882